Time,TemperatureF,DewpointF,PressureIn,WindDirection,WindDirectionDegrees,WindSpeedMPH,WindSpeedGustMPH,Humidity,HourlyPrecipIn,Conditions,Clouds,dailyrainin,SolarRadiationWatts/m^2,SoftwareType,DateUTC
2013-09-23 00:03:00,57.0,49.0,-100.00,SE,134,4.0,9.0,74,0.00,,,0.00,0.000000,,2013-09-23 05:03:00,
2013-09-23 00:43:00,57.0,50.0,-100.00,SE,143,4.0,10.0,77,0.00,,,0.00,0.000000,,2013-09-23 05:43:00,
2013-09-23 00:53:00,57.0,50.0,-100.00,SE,143,4.0,10.0,77,0.00,,,0.00,0.000000,,2013-09-23 05:53:00,
2013-09-23 01:02:00,57.0,50.0,-100.00,SE,143,4.0,10.0,77,0.00,,,0.00,0.000000,,2013-09-23 06:02:00,
2013-09-23 01:42:00,56.0,50.0,-100.00,SE,133,4.0,9.0,79,0.00,,,0.00,0.000000,,2013-09-23 06:42:00,
2013-09-23 01:52:00,56.0,50.0,-100.00,SE,133,4.0,9.0,79,0.00,,,0.00,0.000000,,2013-09-23 06:52:00,
2013-09-23 02:01:00,56.0,50.0,-100.00,SE,133,4.0,9.0,79,0.00,,,0.00,0.000000,,2013-09-23 07:01:00,
2013-09-23 02:42:00,57.0,50.0,-100.00,SSE,148,4.0,10.0,78,0.00,,,0.00,0.000000,,2013-09-23 07:42:00,
2013-09-23 02:52:00,57.0,50.0,-100.00,SSE,148,4.0,10.0,78,0.00,,,0.00,0.000000,,2013-09-23 07:52:00,
2013-09-23 03:02:00,57.0,50.0,-100.00,SSE,148,4.0,10.0,78,0.00,,,0.00,0.000000,,2013-09-23 08:02:00,
2013-09-23 03:42:00,56.0,50.0,-100.00,SSE,158,3.0,10.0,79,0.00,,,0.00,0.000000,,2013-09-23 08:42:00,
2013-09-23 03:52:00,56.0,50.0,-100.00,SSE,158,3.0,10.0,79,0.00,,,0.00,0.000000,,2013-09-23 08:52:00,
2013-09-23 04:02:00,56.0,50.0,-100.00,SSE,158,3.0,10.0,79,0.00,,,0.00,0.000000,,2013-09-23 09:02:00,
2013-09-23 04:43:00,55.0,49.0,-100.00,SSE,149,3.0,10.0,81,0.00,,,0.00,0.000000,,2013-09-23 09:43:00,
2013-09-23 04:53:00,55.0,49.0,-100.00,SSE,149,3.0,10.0,81,0.00,,,0.00,0.000000,,2013-09-23 09:53:00,
2013-09-23 05:03:00,55.0,49.0,-100.00,SSE,149,3.0,10.0,81,0.00,,,0.00,0.000000,,2013-09-23 10:03:00,
2013-09-23 05:42:00,53.0,48.0,-100.00,SE,137,3.0,9.0,83,0.00,,,0.00,0.000000,,2013-09-23 10:42:00,
2013-09-23 05:53:00,53.0,48.0,-100.00,SE,137,3.0,9.0,83,0.00,,,0.00,0.000000,,2013-09-23 10:53:00,
2013-09-23 06:02:00,53.0,48.0,-100.00,SE,137,3.0,9.0,83,0.00,,,0.00,0.000000,,2013-09-23 11:02:00,
2013-09-23 06:42:00,52.0,48.0,-100.00,SE,140,3.0,8.0,85,0.00,,,0.00,0.000000,,2013-09-23 11:42:00,
2013-09-23 06:52:00,52.0,48.0,-100.00,SE,140,3.0,8.0,85,0.00,,,0.00,0.000000,,2013-09-23 11:52:00,
2013-09-23 07:01:00,52.0,48.0,-100.00,SE,140,3.0,8.0,85,0.00,,,0.00,0.000000,,2013-09-23 12:01:00,
2013-09-23 07:42:00,49.0,46.0,-100.00,ESE,117,2.0,6.0,90,0.00,,,0.00,1.000000,,2013-09-23 12:42:00,
2013-09-23 07:52:00,49.0,46.0,-100.00,ESE,117,2.0,6.0,90,0.00,,,0.00,1.000000,,2013-09-23 12:52:00,
2013-09-23 08:02:00,49.0,46.0,-100.00,ESE,117,2.0,6.0,90,0.00,,,0.00,1.000000,,2013-09-23 13:02:00,
2013-09-23 08:42:00,52.0,47.0,-100.00,SE,133,3.0,8.0,84,0.00,,,0.00,41.000000,,2013-09-23 13:42:00,
2013-09-23 08:52:00,52.0,47.0,-100.00,SE,133,3.0,8.0,84,0.00,,,0.00,41.000000,,2013-09-23 13:52:00,
2013-09-23 09:01:00,52.0,47.0,-100.00,SE,133,3.0,8.0,84,0.00,,,0.00,41.000000,,2013-09-23 14:01:00,
2013-09-23 09:43:00,58.0,49.0,-100.00,SE,143,5.0,14.0,71,0.00,,,0.00,197.000000,,2013-09-23 14:43:00,
2013-09-23 09:52:00,58.0,49.0,-100.00,SE,143,5.0,14.0,71,0.00,,,0.00,197.000000,,2013-09-23 14:52:00,
2013-09-23 10:02:00,58.0,49.0,-100.00,SE,143,5.0,14.0,71,0.00,,,0.00,197.000000,,2013-09-23 15:02:00,
2013-09-23 10:43:00,62.0,50.0,-100.00,SE,145,6.0,16.0,64,0.00,,,0.00,376.000000,,2013-09-23 15:43:00,
2013-09-23 10:54:00,62.0,50.0,-100.00,SE,145,6.0,16.0,64,0.00,,,0.00,376.000000,,2013-09-23 15:54:00,
2013-09-23 11:03:00,62.0,50.0,-100.00,SE,145,6.0,16.0,64,0.00,,,0.00,376.000000,,2013-09-23 16:03:00,
2013-09-23 11:43:00,65.0,51.0,-100.00,SSE,162,6.0,15.0,60,0.00,,,0.00,502.000000,,2013-09-23 16:43:00,
2013-09-23 11:53:00,65.0,51.0,-100.00,SSE,162,6.0,15.0,60,0.00,,,0.00,502.000000,,2013-09-23 16:53:00,
2013-09-23 12:03:00,65.0,51.0,-100.00,SSE,162,6.0,15.0,60,0.00,,,0.00,502.000000,,2013-09-23 17:03:00,
2013-09-23 12:42:00,68.0,52.0,-100.00,SE,146,7.0,17.0,56,0.00,,,0.00,611.000000,,2013-09-23 17:42:00,
2013-09-23 12:52:00,68.0,52.0,-100.00,SE,146,7.0,17.0,56,0.00,,,0.00,611.000000,,2013-09-23 17:52:00,
2013-09-23 13:02:00,68.0,52.0,-100.00,SE,146,7.0,17.0,56,0.00,,,0.00,611.000000,,2013-09-23 18:02:00,
2013-09-23 13:42:00,70.0,52.0,-100.00,SSE,148,6.0,19.0,53,0.00,,,0.00,649.000000,,2013-09-23 18:42:00,
2013-09-23 13:52:00,70.0,52.0,-100.00,SSE,148,6.0,19.0,53,0.00,,,0.00,649.000000,,2013-09-23 18:52:00,
2013-09-23 14:02:00,70.0,52.0,-100.00,SSE,148,6.0,19.0,53,0.00,,,0.00,649.000000,,2013-09-23 19:02:00,
2013-09-23 14:42:00,73.0,52.0,-100.00,SSE,151,6.0,17.0,48,0.00,,,0.00,613.000000,,2013-09-23 19:42:00,
2013-09-23 14:53:00,73.0,52.0,-100.00,SSE,151,6.0,17.0,48,0.00,,,0.00,613.000000,,2013-09-23 19:53:00,
2013-09-23 15:02:00,73.0,52.0,-100.00,SSE,151,6.0,17.0,48,0.00,,,0.00,613.000000,,2013-09-23 20:02:00,
2013-09-23 15:42:00,73.0,51.0,-100.00,SE,138,8.0,17.0,46,0.00,,,0.00,630.000000,,2013-09-23 20:42:00,
2013-09-23 15:52:00,73.0,51.0,-100.00,SE,138,8.0,17.0,46,0.00,,,0.00,630.000000,,2013-09-23 20:52:00,
2013-09-23 16:02:00,73.0,51.0,-100.00,SE,138,8.0,17.0,46,0.00,,,0.00,630.000000,,2013-09-23 21:02:00,
2013-09-23 16:44:00,74.0,51.0,-100.00,SSE,162,6.0,18.0,44,0.00,,,0.00,541.000000,,2013-09-23 21:44:00,
2013-09-23 16:54:00,74.0,51.0,-100.00,SSE,162,6.0,18.0,44,0.00,,,0.00,541.000000,,2013-09-23 21:54:00,
2013-09-23 17:04:00,74.0,51.0,-100.00,SSE,162,6.0,18.0,44,0.00,,,0.00,541.000000,,2013-09-23 22:04:00,
2013-09-23 17:43:00,72.0,49.0,-100.00,SSE,149,5.0,16.0,44,0.00,,,0.00,381.000000,,2013-09-23 22:43:00,
2013-09-23 17:54:00,72.0,49.0,-100.00,SSE,149,5.0,16.0,44,0.00,,,0.00,381.000000,,2013-09-23 22:54:00,
2013-09-23 18:02:00,72.0,49.0,-100.00,SSE,149,5.0,16.0,44,0.00,,,0.00,381.000000,,2013-09-23 23:02:00,
2013-09-23 18:42:00,70.0,51.0,-100.00,SE,134,5.0,14.0,51,0.00,,,0.00,211.000000,,2013-09-23 23:42:00,
2013-09-23 18:54:00,70.0,51.0,-100.00,SE,134,5.0,14.0,51,0.00,,,0.00,211.000000,,2013-09-23 23:54:00,
2013-09-23 19:01:00,70.0,51.0,-100.00,SE,134,5.0,14.0,51,0.00,,,0.00,211.000000,,2013-09-24 00:01:00,
2013-09-23 19:43:00,65.0,51.0,-100.00,SE,134,4.0,12.0,60,0.00,,,0.00,69.000000,,2013-09-24 00:43:00,
2013-09-23 19:52:00,65.0,51.0,-100.00,SE,134,4.0,12.0,60,0.00,,,0.00,69.000000,,2013-09-24 00:52:00,
2013-09-23 20:02:00,65.0,51.0,-100.00,SE,134,4.0,12.0,60,0.00,,,0.00,69.000000,,2013-09-24 01:02:00,
2013-09-23 20:52:00,57.0,50.0,-100.00,ESE,105,1.0,7.0,78,0.00,,,0.00,1.000000,,2013-09-24 01:52:00,
2013-09-23 21:02:00,57.0,50.0,-100.00,ESE,105,1.0,7.0,78,0.00,,,0.00,1.000000,,2013-09-24 02:02:00,